Year,Month,Day,Hour,Minute,Value (Times are PST for temperature in C)
2015,03,07,00,00,4.60
2015,03,07,00,01,4.60
2015,03,07,00,02,4.60
2015,03,07,00,03,4.60
2015,03,07,00,04,4.60
2015,03,07,00,05,4.60
2015,03,07,00,06,4.60
2015,03,07,00,07,4.60
2015,03,07,00,08,4.60
2015,03,07,00,09,4.60
2015,03,07,00,10,4.60
2015,03,07,00,11,4.60
2015,03,07,00,12,4.60
2015,03,07,00,13,4.60
2015,03,07,00,14,4.60
2015,03,07,00,15,4.60
2015,03,07,00,16,4.60
2015,03,07,00,17,4.60
2015,03,07,00,18,4.60
2015,03,07,00,19,4.60
2015,03,07,00,20,4.50
2015,03,07,00,21,4.50
2015,03,07,00,22,4.50
2015,03,07,00,23,4.50
2015,03,07,00,24,4.50
2015,03,07,00,25,4.50
2015,03,07,00,26,4.50
2015,03,07,00,27,4.50
2015,03,07,00,28,4.50
2015,03,07,00,29,4.50
2015,03,07,00,30,4.50
2015,03,07,00,31,4.60
2015,03,07,00,32,4.50
2015,03,07,00,33,4.50
2015,03,07,00,34,4.50
2015,03,07,00,35,4.50
2015,03,07,00,36,4.50
2015,03,07,00,37,4.50
2015,03,07,00,38,4.40
2015,03,07,00,39,4.40
2015,03,07,00,40,4.40
2015,03,07,00,41,4.40
2015,03,07,00,42,4.40
2015,03,07,00,43,4.30
2015,03,07,00,44,4.30
2015,03,07,00,45,4.30
2015,03,07,00,46,4.30
2015,03,07,00,47,4.20
2015,03,07,00,48,4.20
2015,03,07,00,49,4.20
2015,03,07,00,50,4.20
2015,03,07,00,51,4.20
2015,03,07,00,52,4.20
2015,03,07,00,53,4.20
2015,03,07,00,54,4.20
2015,03,07,00,55,4.20
2015,03,07,00,56,4.20
2015,03,07,00,57,4.20
2015,03,07,00,58,4.20
2015,03,07,00,59,4.20
2015,03,07,01,00,4.20
2015,03,07,01,01,4.20
2015,03,07,01,02,4.20
2015,03,07,01,03,4.20
2015,03,07,01,04,4.10
2015,03,07,01,05,4.20
2015,03,07,01,06,4.20
2015,03,07,01,07,4.20
2015,03,07,01,08,4.20
2015,03,07,01,09,4.20
2015,03,07,01,10,4.20
2015,03,07,01,11,4.20
2015,03,07,01,12,4.20
2015,03,07,01,13,4.20
2015,03,07,01,14,4.20
2015,03,07,01,15,4.20
2015,03,07,01,16,4.20
2015,03,07,01,17,4.20
2015,03,07,01,18,4.20
2015,03,07,01,19,4.20
2015,03,07,01,20,4.20
2015,03,07,01,21,4.20
2015,03,07,01,22,4.20
2015,03,07,01,23,4.20
2015,03,07,01,24,4.20
2015,03,07,01,25,4.20
2015,03,07,01,26,4.20
2015,03,07,01,27,4.20
2015,03,07,01,28,4.20
2015,03,07,01,29,4.20
2015,03,07,01,30,4.20
2015,03,07,01,31,4.20
2015,03,07,01,32,4.20
2015,03,07,01,33,4.10
2015,03,07,01,34,4.10
2015,03,07,01,35,4.10
2015,03,07,01,36,4.10
2015,03,07,01,37,4.10
2015,03,07,01,38,4.00
2015,03,07,01,39,4.00
2015,03,07,01,40,4.00
2015,03,07,01,41,4.00
2015,03,07,01,42,3.90
2015,03,07,01,43,3.90
2015,03,07,01,44,3.90
2015,03,07,01,45,3.90
2015,03,07,01,46,3.90
2015,03,07,01,47,3.90
2015,03,07,01,48,3.90
2015,03,07,01,49,3.90
2015,03,07,01,50,3.90
2015,03,07,01,51,4.00
2015,03,07,01,52,3.90
2015,03,07,01,53,4.00
2015,03,07,01,54,4.00
2015,03,07,01,55,4.00
2015,03,07,01,56,4.00
2015,03,07,01,57,4.00
2015,03,07,01,58,4.00
2015,03,07,01,59,4.00
2015,03,07,02,00,4.00
2015,03,07,02,01,4.00
2015,03,07,02,02,4.00
2015,03,07,02,03,4.00
2015,03,07,02,04,4.00
2015,03,07,02,05,4.00
2015,03,07,02,06,4.00
2015,03,07,02,07,4.00
2015,03,07,02,08,3.90
2015,03,07,02,09,3.90
2015,03,07,02,10,3.90
2015,03,07,02,11,3.90
2015,03,07,02,12,3.90
2015,03,07,02,13,3.80
2015,03,07,02,14,3.80
2015,03,07,02,15,3.80
2015,03,07,02,16,3.80
2015,03,07,02,17,3.80
2015,03,07,02,18,3.80
2015,03,07,02,19,3.80
2015,03,07,02,20,3.80
2015,03,07,02,21,3.80
2015,03,07,02,22,3.80
2015,03,07,02,23,3.80
2015,03,07,02,24,3.80
2015,03,07,02,25,3.80
2015,03,07,02,26,3.80
2015,03,07,02,27,3.80
2015,03,07,02,28,3.80
2015,03,07,02,29,3.80
2015,03,07,02,30,3.80
2015,03,07,02,31,3.80
2015,03,07,02,32,3.80
2015,03,07,02,33,3.80
2015,03,07,02,34,3.70
2015,03,07,02,35,3.70
2015,03,07,02,36,3.70
2015,03,07,02,37,3.70
2015,03,07,02,38,3.70
2015,03,07,02,39,3.80
2015,03,07,02,40,3.80
2015,03,07,02,41,3.80
2015,03,07,02,42,3.80
2015,03,07,02,43,3.80
2015,03,07,02,44,3.80
2015,03,07,02,45,3.80
2015,03,07,02,46,3.70
2015,03,07,02,47,3.70
2015,03,07,02,48,3.70
2015,03,07,02,49,3.70
2015,03,07,02,50,3.70
2015,03,07,02,51,3.70
2015,03,07,02,52,3.70
2015,03,07,02,53,3.70
2015,03,07,02,54,3.70
2015,03,07,02,55,3.60
2015,03,07,02,56,3.60
2015,03,07,02,57,3.60
2015,03,07,02,58,3.60
2015,03,07,02,59,3.60
2015,03,07,03,00,3.60
2015,03,07,03,01,3.60
2015,03,07,03,02,3.60
2015,03,07,03,03,3.60
2015,03,07,03,04,3.60
2015,03,07,03,05,3.60
2015,03,07,03,06,3.60
2015,03,07,03,07,3.60
2015,03,07,03,08,3.60
2015,03,07,03,09,3.60
2015,03,07,03,10,3.60
2015,03,07,03,11,3.60
2015,03,07,03,12,3.50
2015,03,07,03,13,3.50
2015,03,07,03,14,3.50
2015,03,07,03,15,3.50
2015,03,07,03,16,3.50
2015,03,07,03,17,3.60
2015,03,07,03,18,3.60
2015,03,07,03,19,3.60
2015,03,07,03,20,3.60
2015,03,07,03,21,3.60
2015,03,07,03,22,3.60
2015,03,07,03,23,3.60
2015,03,07,03,24,3.60
2015,03,07,03,25,3.60
2015,03,07,03,26,3.60
2015,03,07,03,27,3.60
2015,03,07,03,28,3.60
2015,03,07,03,29,3.60
2015,03,07,03,30,3.70
2015,03,07,03,31,3.70
2015,03,07,03,32,3.60
2015,03,07,03,33,3.60
2015,03,07,03,34,3.70
2015,03,07,03,35,3.60
2015,03,07,03,36,3.70
2015,03,07,03,37,3.60
2015,03,07,03,38,3.60
2015,03,07,03,39,3.60
2015,03,07,03,40,3.60
2015,03,07,03,41,3.60
2015,03,07,03,42,3.60
2015,03,07,03,43,3.60
2015,03,07,03,44,3.60
2015,03,07,03,45,3.60
2015,03,07,03,46,3.60
2015,03,07,03,47,3.60
2015,03,07,03,48,3.60
2015,03,07,03,49,3.50
2015,03,07,03,50,3.50
2015,03,07,03,51,3.50
2015,03,07,03,52,3.50
2015,03,07,03,53,3.40
2015,03,07,03,54,3.40
2015,03,07,03,55,3.40
2015,03,07,03,56,3.40
2015,03,07,03,57,3.40
2015,03,07,03,58,3.40
2015,03,07,03,59,3.40
2015,03,07,04,00,3.40
2015,03,07,04,01,3.40
2015,03,07,04,02,3.40
2015,03,07,04,03,3.40
2015,03,07,04,04,3.40
2015,03,07,04,05,3.40
2015,03,07,04,06,3.40
2015,03,07,04,07,3.40
2015,03,07,04,08,3.40
2015,03,07,04,09,3.40
2015,03,07,04,10,3.40
2015,03,07,04,11,3.40
2015,03,07,04,12,3.30
2015,03,07,04,13,3.30
2015,03,07,04,14,3.30
2015,03,07,04,15,3.30
2015,03,07,04,16,3.30
2015,03,07,04,17,3.30
2015,03,07,04,18,3.30
2015,03,07,04,19,3.30
2015,03,07,04,20,3.30
2015,03,07,04,21,3.30
2015,03,07,04,22,3.30
2015,03,07,04,23,3.30
2015,03,07,04,24,3.30
2015,03,07,04,25,3.30
2015,03,07,04,26,3.30
2015,03,07,04,27,3.30
2015,03,07,04,28,3.30
2015,03,07,04,29,3.30
2015,03,07,04,30,3.30
2015,03,07,04,31,3.40
2015,03,07,04,32,3.40
2015,03,07,04,33,3.30
2015,03,07,04,34,3.40
2015,03,07,04,35,3.40
2015,03,07,04,36,3.40
2015,03,07,04,37,3.40
2015,03,07,04,38,3.40
2015,03,07,04,39,3.40
2015,03,07,04,40,3.40
2015,03,07,04,41,3.40
2015,03,07,04,42,3.40
2015,03,07,04,43,3.40
2015,03,07,04,44,3.40
2015,03,07,04,45,3.40
2015,03,07,04,46,3.40
2015,03,07,04,47,3.40
2015,03,07,04,48,3.40
2015,03,07,04,49,3.50
2015,03,07,04,50,3.50
2015,03,07,04,51,3.50
2015,03,07,04,52,3.50
2015,03,07,04,53,3.50
2015,03,07,04,54,3.50
2015,03,07,04,55,3.50
2015,03,07,04,56,3.50
2015,03,07,04,57,3.50
2015,03,07,04,58,3.50
2015,03,07,04,59,3.50
2015,03,07,05,00,3.50
2015,03,07,05,01,3.50
2015,03,07,05,02,3.40
2015,03,07,05,03,3.40
2015,03,07,05,04,3.40
2015,03,07,05,05,3.40
2015,03,07,05,06,3.40
2015,03,07,05,07,3.40
2015,03,07,05,08,3.40
2015,03,07,05,09,3.40
2015,03,07,05,10,3.40
2015,03,07,05,11,3.40
2015,03,07,05,12,3.40
2015,03,07,05,13,3.50
2015,03,07,05,14,3.50
2015,03,07,05,15,3.50
2015,03,07,05,16,3.50
2015,03,07,05,17,3.60
2015,03,07,05,18,3.60
2015,03,07,05,19,3.60
2015,03,07,05,20,3.60
2015,03,07,05,21,3.60
2015,03,07,05,22,3.60
2015,03,07,05,23,3.60
2015,03,07,05,24,3.60
2015,03,07,05,25,3.60
2015,03,07,05,26,3.60
2015,03,07,05,27,3.60
2015,03,07,05,28,3.60
2015,03,07,05,29,3.60
2015,03,07,05,30,3.70
2015,03,07,05,31,3.70
2015,03,07,05,32,3.70
2015,03,07,05,33,3.70
2015,03,07,05,34,3.70
2015,03,07,05,35,3.70
2015,03,07,05,36,3.70
2015,03,07,05,37,3.70
2015,03,07,05,38,3.70
2015,03,07,05,39,3.70
2015,03,07,05,40,3.70
2015,03,07,05,41,3.70
2015,03,07,05,42,3.70
2015,03,07,05,43,3.70
2015,03,07,05,44,3.70
2015,03,07,05,45,3.60
2015,03,07,05,46,3.60
2015,03,07,05,47,3.60
2015,03,07,05,48,3.60
2015,03,07,05,49,3.60
2015,03,07,05,50,3.60
2015,03,07,05,51,3.50
2015,03,07,05,52,3.60
2015,03,07,05,53,3.50
2015,03,07,05,54,3.50
2015,03,07,05,55,3.50
2015,03,07,05,56,3.50
2015,03,07,05,57,3.50
2015,03,07,05,58,3.50
2015,03,07,05,59,3.50
2015,03,07,06,00,3.50
2015,03,07,06,01,3.50
2015,03,07,06,02,3.50
2015,03,07,06,03,3.50
2015,03,07,06,04,3.50
2015,03,07,06,05,3.50
2015,03,07,06,06,3.50
2015,03,07,06,07,3.50
2015,03,07,06,08,3.50
2015,03,07,06,09,3.50
2015,03,07,06,10,3.50
2015,03,07,06,11,3.50
2015,03,07,06,12,3.60
2015,03,07,06,13,3.60
2015,03,07,06,14,3.60
2015,03,07,06,15,3.60
2015,03,07,06,16,3.60
2015,03,07,06,17,3.60
2015,03,07,06,18,3.60
2015,03,07,06,19,3.60
2015,03,07,06,20,3.60
2015,03,07,06,21,3.60
2015,03,07,06,22,3.60
2015,03,07,06,23,3.60
2015,03,07,06,24,3.60
2015,03,07,06,25,3.60
2015,03,07,06,26,3.50
2015,03,07,06,27,3.50
2015,03,07,06,28,3.50
2015,03,07,06,29,3.50
2015,03,07,06,30,3.50
2015,03,07,06,31,3.50
2015,03,07,06,32,3.40
2015,03,07,06,33,3.40
2015,03,07,06,34,3.40
2015,03,07,06,35,3.40
2015,03,07,06,36,3.40
2015,03,07,06,37,3.30
2015,03,07,06,38,3.30
2015,03,07,06,39,3.30
2015,03,07,06,40,3.30
2015,03,07,06,41,3.30
2015,03,07,06,42,3.30
2015,03,07,06,43,3.30
2015,03,07,06,44,3.30
2015,03,07,06,45,3.20
2015,03,07,06,46,3.20
2015,03,07,06,47,3.20
2015,03,07,06,48,3.20
2015,03,07,06,49,3.10
2015,03,07,06,50,3.10
2015,03,07,06,51,3.10
2015,03,07,06,52,3.10
2015,03,07,06,53,3.10
2015,03,07,06,54,3.10
2015,03,07,06,55,3.10
2015,03,07,06,56,3.10
2015,03,07,06,57,3.10
2015,03,07,06,58,3.10
2015,03,07,06,59,3.10
2015,03,07,07,00,3.10
2015,03,07,07,01,3.10
2015,03,07,07,02,3.10
2015,03,07,07,03,3.10
2015,03,07,07,04,3.10
2015,03,07,07,05,3.10
2015,03,07,07,06,3.10
2015,03,07,07,07,3.10
2015,03,07,07,08,3.20
2015,03,07,07,09,3.20
2015,03,07,07,10,3.20
2015,03,07,07,11,3.20
2015,03,07,07,12,3.20
2015,03,07,07,13,3.20
2015,03,07,07,14,3.20
2015,03,07,07,15,3.20
2015,03,07,07,16,3.20
2015,03,07,07,17,3.20
2015,03,07,07,18,3.20
2015,03,07,07,19,3.20
2015,03,07,07,20,3.20
2015,03,07,07,21,3.20
2015,03,07,07,22,3.20
2015,03,07,07,23,3.20
2015,03,07,07,24,3.20
2015,03,07,07,25,3.20
2015,03,07,07,26,3.20
2015,03,07,07,27,3.20
2015,03,07,07,28,3.20
2015,03,07,07,29,3.20
2015,03,07,07,30,3.20
2015,03,07,07,31,3.20
2015,03,07,07,32,3.10
2015,03,07,07,33,3.10
2015,03,07,07,34,3.10
2015,03,07,07,35,3.10
2015,03,07,07,36,3.00
2015,03,07,07,37,3.00
2015,03,07,07,38,3.00
2015,03,07,07,39,3.00
2015,03,07,07,40,3.00
2015,03,07,07,41,3.00
2015,03,07,07,42,3.00
2015,03,07,07,43,3.00
2015,03,07,07,44,3.00
2015,03,07,07,45,3.00
2015,03,07,07,46,3.00
2015,03,07,07,47,3.10
2015,03,07,07,48,3.10
2015,03,07,07,49,3.10
2015,03,07,07,50,3.10
2015,03,07,07,51,3.10
2015,03,07,07,52,3.10
2015,03,07,07,53,3.10
2015,03,07,07,54,3.20
2015,03,07,07,55,3.20
2015,03,07,07,56,3.20
2015,03,07,07,57,3.20
2015,03,07,07,58,3.20
2015,03,07,07,59,3.30
2015,03,07,08,00,3.30
2015,03,07,08,01,3.40
2015,03,07,08,02,3.50
2015,03,07,08,03,3.50
2015,03,07,08,04,3.60
2015,03,07,08,05,3.70
2015,03,07,08,06,3.80
2015,03,07,08,07,3.90
2015,03,07,08,08,4.00
2015,03,07,08,09,4.10
2015,03,07,08,10,4.20
2015,03,07,08,11,4.30
2015,03,07,08,12,4.40
2015,03,07,08,13,4.50
2015,03,07,08,14,4.60
2015,03,07,08,15,4.70
2015,03,07,08,16,4.80
2015,03,07,08,17,4.80
2015,03,07,08,18,4.90
2015,03,07,08,19,4.90
2015,03,07,08,20,5.00
2015,03,07,08,21,5.10
2015,03,07,08,22,5.20
2015,03,07,08,23,5.20
2015,03,07,08,24,5.30
2015,03,07,08,25,5.30
2015,03,07,08,26,5.40
2015,03,07,08,27,5.40
2015,03,07,08,28,5.40
2015,03,07,08,29,5.50
2015,03,07,08,30,5.50
2015,03,07,08,31,5.60
2015,03,07,08,32,5.60
2015,03,07,08,33,5.70
2015,03,07,08,34,5.70
2015,03,07,08,35,5.80
2015,03,07,08,36,5.80
2015,03,07,08,37,5.90
2015,03,07,08,38,5.90
2015,03,07,08,39,6.00
2015,03,07,08,40,6.00
2015,03,07,08,41,6.10
2015,03,07,08,42,6.10
2015,03,07,08,43,6.20
2015,03,07,08,44,6.20
2015,03,07,08,45,6.30
2015,03,07,08,46,6.30
2015,03,07,08,47,6.30
2015,03,07,08,48,6.40
2015,03,07,08,49,6.40
2015,03,07,08,50,6.50
2015,03,07,08,51,6.50
2015,03,07,08,52,6.50
2015,03,07,08,53,6.60
2015,03,07,08,54,6.60
2015,03,07,08,55,6.60
2015,03,07,08,56,6.70
2015,03,07,08,57,6.70
2015,03,07,08,58,6.80
2015,03,07,08,59,6.80
2015,03,07,09,00,6.80
2015,03,07,09,01,6.90
2015,03,07,09,02,6.90
2015,03,07,09,03,7.00
2015,03,07,09,04,7.10
2015,03,07,09,05,7.10
2015,03,07,09,06,7.20
2015,03,07,09,07,7.20
2015,03,07,09,08,7.20
2015,03,07,09,09,7.30
2015,03,07,09,10,7.30
2015,03,07,09,11,7.30
2015,03,07,09,12,7.40
2015,03,07,09,13,7.40
2015,03,07,09,14,7.50
2015,03,07,09,15,7.50
2015,03,07,09,16,7.60
2015,03,07,09,17,7.60
2015,03,07,09,18,7.70
2015,03,07,09,19,7.70
2015,03,07,09,20,7.70
2015,03,07,09,21,7.70
2015,03,07,09,22,7.80
2015,03,07,09,23,7.80
2015,03,07,09,24,7.80
2015,03,07,09,25,7.90
2015,03,07,09,26,7.90
2015,03,07,09,27,7.90
2015,03,07,09,28,7.90
2015,03,07,09,29,8.00
2015,03,07,09,30,8.00
2015,03,07,09,31,8.00
2015,03,07,09,32,8.00
2015,03,07,09,33,8.10
2015,03,07,09,34,8.10
2015,03,07,09,35,8.10
2015,03,07,09,36,8.20
2015,03,07,09,37,8.20
2015,03,07,09,38,8.20
2015,03,07,09,39,8.30
2015,03,07,09,40,8.30
2015,03,07,09,41,8.40
2015,03,07,09,42,8.40
2015,03,07,09,43,8.40
2015,03,07,09,44,8.50
2015,03,07,09,45,8.50
2015,03,07,09,46,8.60
2015,03,07,09,47,8.60
2015,03,07,09,48,8.70
2015,03,07,09,49,8.70
2015,03,07,09,50,8.80
2015,03,07,09,51,8.80
2015,03,07,09,52,8.80
2015,03,07,09,53,8.90
2015,03,07,09,54,8.90
2015,03,07,09,55,8.90
2015,03,07,09,56,9.00
2015,03,07,09,57,9.00
2015,03,07,09,58,9.10
2015,03,07,09,59,9.10
2015,03,07,10,00,9.20
2015,03,07,10,01,9.20
2015,03,07,10,02,9.20
2015,03,07,10,03,9.30
2015,03,07,10,04,9.30
2015,03,07,10,05,9.30
2015,03,07,10,06,9.30
2015,03,07,10,07,9.40
2015,03,07,10,08,9.50
2015,03,07,10,09,9.50
2015,03,07,10,10,9.60
2015,03,07,10,11,9.60
2015,03,07,10,12,9.60
2015,03,07,10,13,9.70
2015,03,07,10,14,9.70
2015,03,07,10,15,9.70
2015,03,07,10,16,9.80
2015,03,07,10,17,9.80
2015,03,07,10,18,9.80
2015,03,07,10,19,9.80
2015,03,07,10,20,9.80
2015,03,07,10,21,9.90
2015,03,07,10,22,9.90
2015,03,07,10,23,9.90
2015,03,07,10,24,10.00
2015,03,07,10,25,10.00
2015,03,07,10,26,10.00
2015,03,07,10,27,10.10
2015,03,07,10,28,10.10
2015,03,07,10,29,10.10
2015,03,07,10,30,10.20
2015,03,07,10,31,10.20
2015,03,07,10,32,10.30
2015,03,07,10,33,10.30
2015,03,07,10,34,10.40
2015,03,07,10,35,10.40
2015,03,07,10,36,10.40
2015,03,07,10,37,10.50
2015,03,07,10,38,10.50
2015,03,07,10,39,10.50
2015,03,07,10,40,10.60
2015,03,07,10,41,10.60
2015,03,07,10,42,10.60
2015,03,07,10,43,10.70
2015,03,07,10,44,10.70
2015,03,07,10,45,10.70
2015,03,07,10,46,10.70
2015,03,07,10,47,10.80
2015,03,07,10,48,10.80
2015,03,07,10,49,10.90
2015,03,07,10,50,11.00
2015,03,07,10,51,11.00
2015,03,07,10,52,11.10
2015,03,07,10,53,11.20
2015,03,07,10,54,11.20
2015,03,07,10,55,11.30
2015,03,07,10,56,11.40
2015,03,07,10,57,11.40
2015,03,07,10,58,11.50
2015,03,07,10,59,11.50
2015,03,07,11,00,11.50
2015,03,07,11,01,11.50
2015,03,07,11,02,11.50
2015,03,07,11,03,11.50
2015,03,07,11,04,11.50
2015,03,07,11,05,11.40
2015,03,07,11,06,11.40
2015,03,07,11,07,11.40
2015,03,07,11,08,11.40
2015,03,07,11,09,11.40
2015,03,07,11,10,11.40
2015,03,07,11,11,11.40
2015,03,07,11,12,11.40
2015,03,07,11,13,11.40
2015,03,07,11,14,11.50
2015,03,07,11,15,11.50
2015,03,07,11,16,11.50
2015,03,07,11,17,11.50
2015,03,07,11,18,11.50
2015,03,07,11,19,11.50
2015,03,07,11,20,11.50
2015,03,07,11,21,11.60
2015,03,07,11,22,11.60
2015,03,07,11,23,11.60
2015,03,07,11,24,11.60
2015,03,07,11,25,11.70
2015,03,07,11,26,11.70
2015,03,07,11,27,11.80
2015,03,07,11,28,11.80
2015,03,07,11,29,11.90
2015,03,07,11,30,11.90
2015,03,07,11,31,11.90
2015,03,07,11,32,12.00
2015,03,07,11,33,12.10
2015,03,07,11,34,12.10
2015,03,07,11,35,12.20
2015,03,07,11,36,12.30
2015,03,07,11,37,12.30
2015,03,07,11,38,12.40
2015,03,07,11,39,12.40
2015,03,07,11,40,12.40
2015,03,07,11,41,12.40
2015,03,07,11,42,12.50
2015,03,07,11,43,12.50
2015,03,07,11,44,12.50
2015,03,07,11,45,12.50
2015,03,07,11,46,12.60
2015,03,07,11,47,12.60
2015,03,07,11,48,12.70
2015,03,07,11,49,12.70
2015,03,07,11,50,12.70
2015,03,07,11,51,12.80
2015,03,07,11,52,12.80
2015,03,07,11,53,12.80
2015,03,07,11,54,12.80
2015,03,07,11,55,12.80
2015,03,07,11,56,12.80
2015,03,07,11,57,12.80
2015,03,07,11,58,12.90
2015,03,07,11,59,12.90
2015,03,07,12,00,12.90
2015,03,07,12,01,13.00
2015,03,07,12,02,13.00
2015,03,07,12,03,13.00
2015,03,07,12,04,13.00
2015,03,07,12,05,13.10
2015,03,07,12,06,13.10
2015,03,07,12,07,13.10
2015,03,07,12,08,13.10
2015,03,07,12,09,13.10
2015,03,07,12,10,13.10
2015,03,07,12,11,13.10
2015,03,07,12,12,13.10
2015,03,07,12,13,13.10
2015,03,07,12,14,13.10
2015,03,07,12,15,13.10
2015,03,07,12,16,13.10
2015,03,07,12,17,13.10
2015,03,07,12,18,13.20
2015,03,07,12,19,13.20
2015,03,07,12,20,13.30
2015,03,07,12,21,13.30
2015,03,07,12,22,13.40
2015,03,07,12,23,13.40
2015,03,07,12,24,13.40
2015,03,07,12,25,13.40
2015,03,07,12,26,13.40
2015,03,07,12,27,13.40
2015,03,07,12,28,13.40
2015,03,07,12,29,13.40
2015,03,07,12,30,13.40
2015,03,07,12,31,13.40
2015,03,07,12,32,13.30
2015,03,07,12,33,13.30
2015,03,07,12,34,13.20
2015,03,07,12,35,13.20
2015,03,07,12,36,13.30
2015,03,07,12,37,13.30
2015,03,07,12,38,13.30
2015,03,07,12,39,13.30
2015,03,07,12,40,13.40
2015,03,07,12,41,13.40
2015,03,07,12,42,13.40
2015,03,07,12,43,13.50
2015,03,07,12,44,13.50
2015,03,07,12,45,13.50
2015,03,07,12,46,13.60
2015,03,07,12,47,13.60
2015,03,07,12,48,13.70
2015,03,07,12,49,13.70
2015,03,07,12,50,13.60
2015,03,07,12,51,13.60
2015,03,07,12,52,13.60
2015,03,07,12,53,13.60
2015,03,07,12,54,13.60
2015,03,07,12,55,13.60
2015,03,07,12,56,13.60
2015,03,07,12,57,13.60
2015,03,07,12,58,13.60
2015,03,07,12,59,13.60
2015,03,07,13,00,13.60
2015,03,07,13,01,13.60
2015,03,07,13,02,13.50
2015,03,07,13,03,13.40
2015,03,07,13,04,13.40
2015,03,07,13,05,13.40
2015,03,07,13,06,13.40
2015,03,07,13,07,13.40
2015,03,07,13,08,13.40
2015,03,07,13,09,13.50
2015,03,07,13,10,13.60
2015,03,07,13,11,13.60
2015,03,07,13,12,13.60
2015,03,07,13,13,13.70
2015,03,07,13,14,13.70
2015,03,07,13,15,13.80
2015,03,07,13,16,13.80
2015,03,07,13,17,13.80
2015,03,07,13,18,13.80
2015,03,07,13,19,13.70
2015,03,07,13,20,13.70
2015,03,07,13,21,13.70
2015,03,07,13,22,13.80
2015,03,07,13,23,13.70
2015,03,07,13,24,13.70
2015,03,07,13,25,13.70
2015,03,07,13,26,13.60
2015,03,07,13,27,13.60
2015,03,07,13,28,13.60
2015,03,07,13,29,13.60
2015,03,07,13,30,13.60
2015,03,07,13,31,13.60
2015,03,07,13,32,13.60
2015,03,07,13,33,13.60
2015,03,07,13,34,13.60
2015,03,07,13,35,13.50
2015,03,07,13,36,13.50
2015,03,07,13,37,13.40
2015,03,07,13,38,13.40
2015,03,07,13,39,13.40
2015,03,07,13,40,13.50
2015,03,07,13,41,13.50
2015,03,07,13,42,13.60
2015,03,07,13,43,13.60
2015,03,07,13,44,13.70
2015,03,07,13,45,13.70
2015,03,07,13,46,13.70
2015,03,07,13,47,13.70
2015,03,07,13,48,13.70
2015,03,07,13,49,13.70
2015,03,07,13,50,13.70
2015,03,07,13,51,13.80
2015,03,07,13,52,13.80
2015,03,07,13,53,13.90
2015,03,07,13,54,13.90
2015,03,07,13,55,14.00
2015,03,07,13,56,14.10
2015,03,07,13,57,14.20
2015,03,07,13,58,14.20
2015,03,07,13,59,14.30
2015,03,07,14,00,14.40
2015,03,07,14,01,14.50
2015,03,07,14,02,14.60
2015,03,07,14,03,14.60
2015,03,07,14,04,14.60
2015,03,07,14,05,14.70
2015,03,07,14,06,14.70
2015,03,07,14,07,14.70
2015,03,07,14,08,14.80
2015,03,07,14,09,14.80
2015,03,07,14,10,14.80
2015,03,07,14,11,14.90
2015,03,07,14,12,15.00
2015,03,07,14,13,15.00
2015,03,07,14,14,15.10
2015,03,07,14,15,15.20
2015,03,07,14,16,15.20
2015,03,07,14,17,15.30
2015,03,07,14,18,15.30
2015,03,07,14,19,15.40
2015,03,07,14,20,15.40
2015,03,07,14,21,15.40
2015,03,07,14,22,15.40
2015,03,07,14,23,15.40
2015,03,07,14,24,15.50
2015,03,07,14,25,15.50
2015,03,07,14,26,15.60
2015,03,07,14,27,15.60
2015,03,07,14,28,15.60
2015,03,07,14,29,15.60
2015,03,07,14,30,15.60
2015,03,07,14,31,15.60
2015,03,07,14,32,15.60
2015,03,07,14,33,15.60
2015,03,07,14,34,15.70
2015,03,07,14,35,15.70
2015,03,07,14,36,15.60
2015,03,07,14,37,15.60
2015,03,07,14,38,15.60
2015,03,07,14,39,15.60
2015,03,07,14,40,15.50
2015,03,07,14,41,15.50
2015,03,07,14,42,15.50
2015,03,07,14,43,15.40
2015,03,07,14,44,15.40
2015,03,07,14,45,15.40
2015,03,07,14,46,15.30
2015,03,07,14,47,15.30
2015,03,07,14,48,15.30
2015,03,07,14,49,15.30
2015,03,07,14,50,15.30
2015,03,07,14,51,15.40
2015,03,07,14,52,15.40
2015,03,07,14,53,15.40
2015,03,07,14,54,15.40
2015,03,07,14,55,15.40
2015,03,07,14,56,15.40
2015,03,07,14,57,15.40
2015,03,07,14,58,15.40
2015,03,07,14,59,15.30
2015,03,07,15,00,15.30
2015,03,07,15,01,15.20
2015,03,07,15,02,15.20
2015,03,07,15,03,15.10
2015,03,07,15,04,15.00
2015,03,07,15,05,15.00
2015,03,07,15,06,14.90
2015,03,07,15,07,14.90
2015,03,07,15,08,14.80
2015,03,07,15,09,14.80
2015,03,07,15,10,14.80
2015,03,07,15,11,14.80
2015,03,07,15,12,14.80
2015,03,07,15,13,14.80
2015,03,07,15,14,14.80
2015,03,07,15,15,14.80
2015,03,07,15,16,14.80
2015,03,07,15,17,14.80
2015,03,07,15,18,14.80
2015,03,07,15,19,14.80
2015,03,07,15,20,14.90
2015,03,07,15,21,14.90
2015,03,07,15,22,14.80
2015,03,07,15,23,14.80
2015,03,07,15,24,14.70
2015,03,07,15,25,14.60
2015,03,07,15,26,14.60
2015,03,07,15,27,14.60
2015,03,07,15,28,14.60
2015,03,07,15,29,14.60
2015,03,07,15,30,14.60
2015,03,07,15,31,14.60
2015,03,07,15,32,14.60
2015,03,07,15,33,14.60
2015,03,07,15,34,14.60
2015,03,07,15,35,14.60
2015,03,07,15,36,14.70
2015,03,07,15,37,14.70
2015,03,07,15,38,14.70
2015,03,07,15,39,14.60
2015,03,07,15,40,14.60
2015,03,07,15,41,14.60
2015,03,07,15,42,14.50
2015,03,07,15,43,14.50
2015,03,07,15,44,14.50
2015,03,07,15,45,14.50
2015,03,07,15,46,14.50
2015,03,07,15,47,14.50
2015,03,07,15,48,14.50
2015,03,07,15,49,14.60
2015,03,07,15,50,14.50
2015,03,07,15,51,14.50
2015,03,07,15,52,14.50
2015,03,07,15,53,14.50
2015,03,07,15,54,14.50
2015,03,07,15,55,14.60
2015,03,07,15,56,14.60
2015,03,07,15,57,14.60
2015,03,07,15,58,14.60
2015,03,07,15,59,14.50
2015,03,07,16,00,14.50
2015,03,07,16,01,14.40
2015,03,07,16,02,14.30
2015,03,07,16,03,14.30
2015,03,07,16,04,14.20
2015,03,07,16,05,14.10
2015,03,07,16,06,14.00
2015,03,07,16,07,14.00
2015,03,07,16,08,14.00
2015,03,07,16,09,13.90
2015,03,07,16,10,13.90
2015,03,07,16,11,13.90
2015,03,07,16,12,13.90
2015,03,07,16,13,13.90
2015,03,07,16,14,13.90
2015,03,07,16,15,13.90
2015,03,07,16,16,13.80
2015,03,07,16,17,13.80
2015,03,07,16,18,13.80
2015,03,07,16,19,13.70
2015,03,07,16,20,13.70
2015,03,07,16,21,13.60
2015,03,07,16,22,13.60
2015,03,07,16,23,13.60
2015,03,07,16,24,13.50
2015,03,07,16,25,13.50
2015,03,07,16,26,13.40
2015,03,07,16,27,13.40
2015,03,07,16,28,13.40
2015,03,07,16,29,13.40
2015,03,07,16,30,13.40
2015,03,07,16,31,13.40
2015,03,07,16,32,13.40
2015,03,07,16,33,13.40
2015,03,07,16,34,13.50
2015,03,07,16,35,13.50
2015,03,07,16,36,13.50
2015,03,07,16,37,13.50
2015,03,07,16,38,13.50
2015,03,07,16,39,13.60
2015,03,07,16,40,13.60
2015,03,07,16,41,13.60
2015,03,07,16,42,13.60
2015,03,07,16,43,13.60
2015,03,07,16,44,13.50
2015,03,07,16,45,13.50
2015,03,07,16,46,13.50
2015,03,07,16,47,13.40
2015,03,07,16,48,13.40
2015,03,07,16,49,13.40
2015,03,07,16,50,13.30
2015,03,07,16,51,13.30
2015,03,07,16,52,13.30
2015,03,07,16,53,13.30
2015,03,07,16,54,13.30
2015,03,07,16,55,13.30
2015,03,07,16,56,13.30
2015,03,07,16,57,13.30
2015,03,07,16,58,13.20
2015,03,07,16,59,13.20
2015,03,07,17,00,13.20
2015,03,07,17,01,13.20
2015,03,07,17,02,13.20
2015,03,07,17,03,13.20
2015,03,07,17,04,13.20
2015,03,07,17,05,13.20
2015,03,07,17,06,13.20
2015,03,07,17,07,13.20
2015,03,07,17,08,13.10
2015,03,07,17,09,13.10
2015,03,07,17,10,13.10
2015,03,07,17,11,13.10
2015,03,07,17,12,13.00
2015,03,07,17,13,12.90
2015,03,07,17,14,12.90
2015,03,07,17,15,12.90
2015,03,07,17,16,12.80
2015,03,07,17,17,12.70
2015,03,07,17,18,12.60
2015,03,07,17,19,12.60
2015,03,07,17,20,12.50
2015,03,07,17,21,12.40
2015,03,07,17,22,12.40
2015,03,07,17,23,12.30
2015,03,07,17,24,12.30
2015,03,07,17,25,12.20
2015,03,07,17,26,12.20
2015,03,07,17,27,12.10
2015,03,07,17,28,12.10
2015,03,07,17,29,12.00
2015,03,07,17,30,11.90
2015,03,07,17,31,11.90
2015,03,07,17,32,11.90
2015,03,07,17,33,11.80
2015,03,07,17,34,11.70
2015,03,07,17,35,11.70
2015,03,07,17,36,11.70
2015,03,07,17,37,11.60
2015,03,07,17,38,11.60
2015,03,07,17,39,11.60
2015,03,07,17,40,11.50
2015,03,07,17,41,11.50
2015,03,07,17,42,11.40
2015,03,07,17,43,11.40
2015,03,07,17,44,11.30
2015,03,07,17,45,11.30
2015,03,07,17,46,11.30